TRA93E EHAM-LIEO

Flight info

Callsign TRA93E
Flight time 2h 6m
Altitude 35000
Route WOODY N872 NIK M624 RITAX DCT SUTAL DCT GTQ DCT DEVDI DCT ODINA DCT ANAKI DCT TORTU DCT RAPUR DCT OKBON DCT BEBEV DCT AJO DCT CORSI
Aircraft B738/M-SDE2E3FGHIRWXY/LB1

Departure

Time 2026-05-06 10:35
Airport Amsterdam Airport Schiphol (EHAM)

Arrival

Time 2026-05-06 12:41
Airport Olbia Costa Smeralda Airport (LIEO)
Time Latitude Longitude Altitude Speed Heading
2026-05-06 10:06 52.31003 4.77118 -2 ft 0 kts 183°
2026-05-06 10:22 52.31005 4.77118 -2 ft 2 kts 183°
2026-05-06 10:22 52.31030 4.77117 -2 ft 4 kts 169°
2026-05-06 10:23 52.31040 4.77114 -2 ft 0 kts 168°
2026-05-06 10:26 52.31039 4.77116 -2 ft 1 kts 153°
2026-05-06 10:26 52.31044 4.77143 -2 ft 5 kts 55°
2026-05-06 10:26 52.31073 4.77200 -2 ft 1 kts 61°
2026-05-06 10:27 52.31073 4.77274 -2 ft 12 kts 93°
2026-05-06 10:27 52.31068 4.77420 -2 ft 13 kts 94°
2026-05-06 10:27 52.31006 4.77486 -2 ft 12 kts 184°
2026-05-06 10:27 52.30921 4.77476 -2 ft 12 kts 184°
2026-05-06 10:28 52.30834 4.77466 -2 ft 13 kts 184°
2026-05-06 10:28 52.30738 4.77459 -2 ft 14 kts 183°
2026-05-06 10:28 52.30640 4.77424 -2 ft 15 kts 232°
2026-05-06 10:28 52.30583 4.77272 -2 ft 16 kts 238°
2026-05-06 10:29 52.30521 4.77115 -2 ft 16 kts 237°
2026-05-06 10:29 52.30461 4.76961 -2 ft 16 kts 238°
2026-05-06 10:29 52.30404 4.76811 -2 ft 16 kts 238°
2026-05-06 10:29 52.30346 4.76656 -2 ft 16 kts 238°
2026-05-06 10:30 52.30280 4.76483 -2 ft 20 kts 238°
2026-05-06 10:30 52.30200 4.76275 -2 ft 23 kts 238°
2026-05-06 10:30 52.30101 4.76018 -2 ft 28 kts 237°
2026-05-06 10:30 52.30000 4.75756 -2 ft 26 kts 239°
2026-05-06 10:31 52.29906 4.75510 -2 ft 25 kts 238°
2026-05-06 10:31 52.29843 4.75342 -2 ft 14 kts 244°
2026-05-06 10:31 52.29843 4.75194 -2 ft 13 kts 297°
2026-05-06 10:31 52.29904 4.75080 -2 ft 14 kts 311°
2026-05-06 10:32 52.29990 4.74917 -2 ft 23 kts 311°
2026-05-06 10:32 52.30102 4.74712 3 ft 24 kts 311°
2026-05-06 10:32 52.30210 4.74513 9 ft 23 kts 311°
2026-05-06 10:32 52.30309 4.74328 3 ft 14 kts 310°
2026-05-06 10:33 52.30371 4.74210 -2 ft 10 kts 310°
2026-05-06 10:33 52.30419 4.74116 -2 ft 12 kts 305°
2026-05-06 10:33 52.30412 4.73979 -2 ft 14 kts 252°
2026-05-06 10:33 52.30410 4.73815 -4 ft 10 kts 274°
2026-05-06 10:34 52.30434 4.73760 -4 ft 5 kts 360°
2026-05-06 10:34 52.30503 4.73768 -4 ft 27 kts
2026-05-06 10:34 52.30932 4.73810 -2 ft 95 kts
2026-05-06 10:34 52.31784 4.73904 11 ft 147 kts
2026-05-06 10:35 52.32861 4.74041 502 ft 157 kts
2026-05-06 10:35 52.33997 4.74121 1157 ft 168 kts
2026-05-06 10:35 52.35153 4.74221 1974 ft 165 kts
2026-05-06 10:35 52.36300 4.74445 2639 ft 170 kts 20°
2026-05-06 10:36 52.37365 4.75451 3019 ft 186 kts 46°
2026-05-06 10:36 52.37943 4.77355 3477 ft 196 kts 81°
2026-05-06 10:36 52.37698 4.79541 4097 ft 199 kts 114°
2026-05-06 10:36 52.36865 4.81360 4761 ft 202 kts 131°
2026-05-06 10:37 52.35730 4.82866 5075 ft 221 kts 142°
2026-05-06 10:37 52.34353 4.84146 5495 ft 232 kts 152°
2026-05-06 10:37 52.32770 4.84918 5845 ft 250 kts 172°
2026-05-06 10:37 52.30949 4.84980 6082 ft 274 kts 181°
2026-05-06 10:38 52.29019 4.84856 6725 ft 279 kts 182°
2026-05-06 10:38 52.27088 4.84729 7388 ft 285 kts 182°
2026-05-06 10:38 52.25108 4.84629 8096 ft 287 kts 181°
2026-05-06 10:38 52.23113 4.84558 8912 ft 286 kts 181°
2026-05-06 10:39 52.21086 4.84507 9484 ft 295 kts 181°
2026-05-06 10:39 52.19049 4.84470 10191 ft 297 kts 181°
2026-05-06 10:39 52.16906 4.84440 10477 ft 316 kts 181°
2026-05-06 10:39 52.14656 4.84413 10645 ft 337 kts 181°
2026-05-06 10:40 52.12240 4.84389 10824 ft 356 kts 181°
2026-05-06 10:40 52.09703 4.84366 10987 ft 374 kts 181°
2026-05-06 10:40 52.07035 4.84343 11230 ft 388 kts 181°
2026-05-06 10:40 52.04326 4.84287 11775 ft 393 kts 184°
2026-05-06 10:41 52.01617 4.83596 12310 ft 395 kts 195°
2026-05-06 10:41 51.99038 4.82113 12634 ft 389 kts 206°
2026-05-06 10:41 51.96644 4.80150 12886 ft 394 kts 208°
2026-05-06 10:41 51.94167 4.78129 12861 ft 400 kts 207°
2026-05-06 10:42 51.91662 4.76137 12865 ft 398 kts 207°
2026-05-06 10:42 51.89173 4.74182 12870 ft 397 kts 206°
2026-05-06 10:42 51.86688 4.72240 12861 ft 396 kts 206°
2026-05-06 10:42 51.84204 4.70305 12868 ft 396 kts 206°
2026-05-06 10:43 51.81725 4.68373 12883 ft 396 kts 206°
2026-05-06 10:43 51.79237 4.66434 12885 ft 396 kts 206°
2026-05-06 10:43 51.76750 4.64499 12880 ft 397 kts 206°
2026-05-06 10:44 51.71782 4.60636 12899 ft 399 kts 206°
2026-05-06 10:44 51.69273 4.58691 12872 ft 400 kts 206°
2026-05-06 10:44 51.66763 4.56745 12870 ft 400 kts 206°
2026-05-06 10:44 51.64245 4.54795 12870 ft 400 kts 206°
2026-05-06 10:45 51.61737 4.52850 12866 ft 399 kts 206°
2026-05-06 10:45 51.59235 4.50919 12865 ft 399 kts 206°
2026-05-06 10:45 51.56719 4.48980 12872 ft 403 kts 206°
2026-05-06 10:45 51.54192 4.47033 12881 ft 403 kts 206°
2026-05-06 10:46 51.51663 4.45088 12890 ft 403 kts 206°
2026-05-06 10:46 51.49133 4.43144 13076 ft 407 kts 206°
2026-05-06 10:46 51.46554 4.41163 13668 ft 411 kts 206°
2026-05-06 10:46 51.43963 4.39176 14240 ft 414 kts 206°
2026-05-06 10:47 51.41369 4.37191 14930 ft 415 kts 206°
2026-05-06 10:47 51.38752 4.35203 15540 ft 419 kts 206°
2026-05-06 10:47 51.36122 4.33239 16372 ft 416 kts 205°
2026-05-06 10:47 51.33502 4.31291 17141 ft 415 kts 206°
2026-05-06 10:48 51.30873 4.29333 17801 ft 416 kts 206°
2026-05-06 10:48 51.28259 4.27350 18421 ft 416 kts 206°
2026-05-06 10:48 51.25649 4.25354 19027 ft 416 kts 206°
2026-05-06 10:48 51.23044 4.23368 19636 ft 415 kts 206°
2026-05-06 10:49 51.20397 4.21537 20229 ft 415 kts 197°
2026-05-06 10:49 51.17548 4.21031 20859 ft 415 kts 176°
2026-05-06 10:49 51.14725 4.21978 21520 ft 415 kts 160°
2026-05-06 10:49 51.12177 4.24088 22169 ft 415 kts 143°
2026-05-06 10:50 51.09957 4.26998 22871 ft 412 kts 140°
2026-05-06 10:50 51.07795 4.29987 23528 ft 410 kts 139°
2026-05-06 10:50 51.05647 4.32970 24109 ft 408 kts 139°
2026-05-06 10:50 51.03543 4.35864 24691 ft 405 kts 139°
2026-05-06 10:51 51.01386 4.38798 25300 ft 401 kts 140°
2026-05-06 10:51 50.99311 4.41597 25907 ft 397 kts 140°
2026-05-06 10:51 50.97211 4.44416 26531 ft 394 kts 140°
2026-05-06 10:51 50.95131 4.47204 27177 ft 389 kts 140°
2026-05-06 10:52 50.93074 4.49956 27834 ft 384 kts 140°
2026-05-06 10:52 50.91043 4.52670 28501 ft 379 kts 140°
2026-05-06 10:52 50.89086 4.55426 29182 ft 374 kts 136°
2026-05-06 10:52 50.87246 4.58291 29888 ft 367 kts 134°
2026-05-06 10:53 50.85453 4.61172 30240 ft 370 kts 134°
2026-05-06 10:53 50.83640 4.64085 30539 ft 372 kts 134°
2026-05-06 10:53 50.81814 4.66996 30847 ft 374 kts 135°
2026-05-06 10:53 50.79977 4.69903 31152 ft 375 kts 135°
2026-05-06 10:54 50.78121 4.72822 31462 ft 377 kts 135°
2026-05-06 10:54 50.76259 4.75740 31781 ft 377 kts 136°
2026-05-06 10:54 50.74413 4.78627 32098 ft 378 kts 136°
2026-05-06 10:54 50.72537 4.81550 32405 ft 379 kts 136°
2026-05-06 10:55 50.70657 4.84473 32733 ft 379 kts 136°
2026-05-06 10:55 50.68779 4.87393 33043 ft 380 kts 136°
2026-05-06 10:55 50.66893 4.90319 33309 ft 381 kts 136°
2026-05-06 10:55 50.64994 4.93267 33512 ft 384 kts 136°
2026-05-06 10:56 50.63077 4.96243 33653 ft 389 kts 136°
2026-05-06 10:56 50.61144 4.99243 33804 ft 393 kts 137°
2026-05-06 10:56 50.59193 5.02269 33940 ft 396 kts 137°
2026-05-06 10:56 50.57218 5.05330 34051 ft 400 kts 137°
2026-05-06 10:57 50.55225 5.08414 34176 ft 404 kts 137°
2026-05-06 10:57 50.53211 5.11526 34292 ft 407 kts 137°
2026-05-06 10:57 50.51180 5.14662 34408 ft 411 kts 137°
2026-05-06 10:57 50.49130 5.17822 34533 ft 415 kts 137°
2026-05-06 10:58 50.47759 5.19933 34610 ft 417 kts 137°
2026-05-06 10:58 50.45677 5.23135 34730 ft 420 kts 137°
2026-05-06 10:58 50.42893 5.27411 34896 ft 424 kts 137°
2026-05-06 10:58 50.40776 5.30658 35018 ft 427 kts 137°
2026-05-06 10:59 50.39342 5.32855 35115 ft 429 kts 137°
2026-05-06 10:59 50.37202 5.36130 35227 ft 431 kts 137°
2026-05-06 10:59 50.35046 5.39426 35353 ft 434 kts 137°
2026-05-06 10:59 50.32905 5.42694 35472 ft 436 kts 137°
2026-05-06 11:00 50.30698 5.46057 35595 ft 438 kts 137°
2026-05-06 11:00 50.27794 5.50478 35762 ft 442 kts 137°
2026-05-06 11:00 50.26333 5.52698 35828 ft 443 kts 138°
2026-05-06 11:00 50.24120 5.56057 35960 ft 444 kts 138°
2026-05-06 11:01 50.21869 5.59470 36085 ft 446 kts 138°
2026-05-06 11:01 50.19638 5.62848 36204 ft 448 kts 138°
2026-05-06 11:01 50.17397 5.66236 36331 ft 449 kts 138°
2026-05-06 11:01 50.15153 5.69626 36457 ft 450 kts 138°
2026-05-06 11:02 50.12922 5.72992 36588 ft 451 kts 138°
2026-05-06 11:02 50.10665 5.76391 36708 ft 452 kts 138°
2026-05-06 11:02 50.08386 5.79781 36805 ft 453 kts 141°
2026-05-06 11:03 50.03214 5.85357 36827 ft 454 kts 150°
2026-05-06 11:03 49.97791 5.90477 36823 ft 458 kts 150°
2026-05-06 11:04 49.92344 5.95660 36815 ft 460 kts 150°
2026-05-06 11:04 49.86998 6.00795 36797 ft 460 kts 150°
2026-05-06 11:05 49.81549 6.06035 36795 ft 460 kts 150°
2026-05-06 11:05 49.76107 6.11253 36794 ft 460 kts 150°
2026-05-06 11:06 49.70675 6.16446 36805 ft 459 kts 150°
2026-05-06 11:06 49.65238 6.21628 36800 ft 458 kts 150°
2026-05-06 11:07 49.59854 6.26747 36813 ft 458 kts 150°
2026-05-06 11:07 49.54424 6.31896 36798 ft 458 kts 151°
2026-05-06 11:08 49.49008 6.37020 36783 ft 456 kts 151°
2026-05-06 11:08 49.43458 6.41633 36797 ft 451 kts 158°
2026-05-06 11:09 49.37703 6.45444 36791 ft 450 kts 159°
2026-05-06 11:09 49.31952 6.49226 36796 ft 449 kts 159°
2026-05-06 11:10 49.26225 6.53063 36789 ft 449 kts 158°
2026-05-06 11:10 49.20550 6.56889 36792 ft 448 kts 158°
2026-05-06 11:11 49.14840 6.60732 36800 ft 448 kts 158°
2026-05-06 11:11 49.09118 6.64569 36789 ft 450 kts 159°
2026-05-06 11:12 49.03357 6.68423 36790 ft 453 kts 159°
2026-05-06 11:12 48.97633 6.72246 36780 ft 452 kts 159°
2026-05-06 11:13 48.91910 6.76143 36791 ft 450 kts 158°
2026-05-06 11:13 48.86193 6.80061 36787 ft 450 kts 158°
2026-05-06 11:14 48.80478 6.83962 36794 ft 450 kts 158°
2026-05-06 11:14 48.74754 6.87852 36792 ft 451 kts 158°
2026-05-06 11:15 48.69027 6.91732 36795 ft 451 kts 158°
2026-05-06 11:15 48.63296 6.95604 36795 ft 451 kts 158°
2026-05-06 11:16 48.57562 6.99470 36800 ft 451 kts 159°
2026-05-06 11:16 48.51920 7.03264 36808 ft 452 kts 159°
2026-05-06 11:17 48.46208 7.07095 36806 ft 452 kts 159°
2026-05-06 11:17 48.40460 7.10941 36793 ft 452 kts 159°
2026-05-06 11:18 48.34701 7.14785 36807 ft 452 kts 159°
2026-05-06 11:18 48.28938 7.18622 36805 ft 452 kts 159°
2026-05-06 11:19 48.23185 7.22443 36785 ft 452 kts 159°
2026-05-06 11:19 48.17437 7.26252 36813 ft 451 kts 160°
2026-05-06 11:20 48.11688 7.30051 36791 ft 451 kts 160°
2026-05-06 11:20 48.05990 7.33808 36793 ft 449 kts 160°
2026-05-06 11:21 48.00276 7.37566 36806 ft 448 kts 160°
2026-05-06 11:21 47.94578 7.41305 36806 ft 447 kts 160°
2026-05-06 11:22 47.88892 7.45027 36814 ft 445 kts 160°
2026-05-06 11:22 47.83268 7.48700 36824 ft 443 kts 160°
2026-05-06 11:23 47.77620 7.52381 36852 ft 443 kts 160°
2026-05-06 11:23 47.71982 7.56080 36858 ft 443 kts 159°
2026-05-06 11:24 47.66408 7.59995 36857 ft 443 kts 159°
2026-05-06 11:24 47.60841 7.63964 36864 ft 444 kts 159°
2026-05-06 11:25 47.55256 7.67912 36858 ft 445 kts 159°
2026-05-06 11:25 47.49662 7.71838 36846 ft 445 kts 159°
2026-05-06 11:26 47.44066 7.75748 36858 ft 445 kts 159°
2026-05-06 11:26 47.38454 7.79657 36855 ft 447 kts 159°
2026-05-06 11:27 47.32824 7.83572 36853 ft 447 kts 159°
2026-05-06 11:27 47.27184 7.87486 36838 ft 448 kts 159°
2026-05-06 11:28 47.21557 7.91382 36840 ft 446 kts 159°
2026-05-06 11:28 47.15938 7.95262 36840 ft 445 kts 159°
2026-05-06 11:29 47.10342 7.99119 36830 ft 444 kts 160°
2026-05-06 11:29 47.04830 8.02906 36843 ft 444 kts 160°
2026-05-06 11:30 46.99269 8.06718 36852 ft 444 kts 160°
2026-05-06 11:30 46.93664 8.10553 36858 ft 444 kts 160°
2026-05-06 11:31 46.88074 8.14369 36865 ft 444 kts 160°
2026-05-06 11:31 46.82460 8.18193 36868 ft 444 kts 160°
2026-05-06 11:32 46.76863 8.21996 36901 ft 443 kts 160°
2026-05-06 11:32 46.71280 8.25781 36887 ft 444 kts 160°
2026-05-06 11:33 46.65651 8.29586 36870 ft 446 kts 160°
2026-05-06 11:33 46.60021 8.33384 36876 ft 446 kts 160°
2026-05-06 11:34 46.54393 8.37174 36868 ft 445 kts 160°
2026-05-06 11:34 46.48782 8.40943 36857 ft 444 kts 160°
2026-05-06 11:35 46.43112 8.44028 36869 ft 432 kts 175°
2026-05-06 11:35 46.37172 8.44711 36870 ft 428 kts 180°
2026-05-06 11:36 46.31244 8.45378 36868 ft 427 kts 180°
2026-05-06 11:36 46.25343 8.46130 36813 ft 424 kts 179°
2026-05-06 11:37 46.19479 8.46912 36864 ft 424 kts 179°
2026-05-06 11:37 46.13585 8.47699 36873 ft 425 kts 179°
2026-05-06 11:38 46.07700 8.48491 36884 ft 425 kts 179°
2026-05-06 11:38 46.01811 8.49280 36828 ft 424 kts 180°
2026-05-06 11:39 45.95958 8.50044 36871 ft 426 kts 179°
2026-05-06 11:39 45.90039 8.50822 36866 ft 427 kts 179°
2026-05-06 11:40 45.84137 8.51602 36837 ft 426 kts 179°
2026-05-06 11:40 45.78265 8.52375 36854 ft 426 kts 179°
2026-05-06 11:41 45.72342 8.53153 36854 ft 427 kts 179°
2026-05-06 11:41 45.66395 8.53932 36837 ft 431 kts 179°
2026-05-06 11:42 45.60424 8.54714 36827 ft 430 kts 179°
2026-05-06 11:42 45.54477 8.55491 36826 ft 429 kts 179°
2026-05-06 11:43 45.48528 8.56266 36830 ft 428 kts 179°
2026-05-06 11:43 45.42642 8.57031 36948 ft 426 kts 180°
2026-05-06 11:44 45.33790 8.58178 36958 ft 426 kts 180°
2026-05-06 11:44 45.27895 8.58940 36967 ft 424 kts 180°
2026-05-06 11:45 45.22025 8.59697 36941 ft 423 kts 180°
2026-05-06 11:45 45.16160 8.60452 36921 ft 423 kts 180°
2026-05-06 11:46 45.11291 8.61078 36846 ft 423 kts 180°
2026-05-06 11:46 45.05395 8.61834 36831 ft 422 kts 180°
2026-05-06 11:47 44.99547 8.62582 36825 ft 422 kts 180°
2026-05-06 11:47 44.93733 8.63324 36835 ft 422 kts 180°
2026-05-06 11:48 44.87871 8.64071 36833 ft 422 kts 180°
2026-05-06 11:48 44.82026 8.64815 36825 ft 421 kts 180°
2026-05-06 11:49 44.76191 8.65556 36825 ft 420 kts 180°
2026-05-06 11:49 44.70367 8.66294 36852 ft 420 kts 180°
2026-05-06 11:50 44.64543 8.67030 36848 ft 420 kts 181°
2026-05-06 11:50 44.58719 8.67764 36869 ft 420 kts 181°
2026-05-06 11:51 44.52929 8.68494 36876 ft 420 kts 180°
2026-05-06 11:51 44.47109 8.69220 36894 ft 420 kts 181°
2026-05-06 11:52 44.41300 8.69979 36894 ft 419 kts 180°
2026-05-06 11:52 44.35491 8.70726 36885 ft 419 kts 181°
2026-05-06 11:53 44.29674 8.71411 36885 ft 419 kts 181°
2026-05-06 11:53 44.23859 8.72130 36855 ft 419 kts 181°
2026-05-06 11:54 44.18074 8.73056 36864 ft 424 kts 175°
2026-05-06 11:54 44.12968 8.74529 36865 ft 426 kts 174°
2026-05-06 11:55 44.07168 8.76285 36849 ft 427 kts 174°
2026-05-06 11:55 44.01670 8.77907 36864 ft 427 kts 174°
2026-05-06 11:56 43.95901 8.79573 36885 ft 427 kts 175°
2026-05-06 11:56 43.90593 8.81094 36880 ft 427 kts 175°
2026-05-06 11:57 43.86950 8.82118 36852 ft 427 kts 175°
2026-05-06 11:57 43.81730 8.83588 36879 ft 427 kts 174°
2026-05-06 11:58 43.76079 8.85224 36890 ft 428 kts 174°
2026-05-06 11:58 43.70280 8.86889 36893 ft 428 kts 174°
2026-05-06 11:59 43.64495 8.88533 36584 ft 432 kts 174°
2026-05-06 11:59 43.61552 8.89369 36384 ft 430 kts 174°
2026-05-06 11:59 43.58631 8.90200 36171 ft 428 kts 174°
2026-05-06 12:00 43.55714 8.91027 35977 ft 427 kts 175°
2026-05-06 12:00 43.52810 8.91848 35778 ft 426 kts 175°
2026-05-06 12:00 43.49913 8.92667 35576 ft 425 kts 175°
2026-05-06 12:00 43.47016 8.93484 35357 ft 425 kts 175°
2026-05-06 12:01 43.44126 8.94299 35166 ft 425 kts 175°
2026-05-06 12:01 43.41215 8.94813 34954 ft 417 kts 185°
2026-05-06 12:01 43.38343 8.94581 34780 ft 411 kts 192°
2026-05-06 12:01 43.35579 8.93861 34585 ft 407 kts 199°
2026-05-06 12:02 43.32926 8.92552 34395 ft 404 kts 206°
2026-05-06 12:02 43.30334 8.91047 34214 ft 404 kts 206°
2026-05-06 12:02 43.27745 8.89538 34002 ft 404 kts 206°
2026-05-06 12:02 43.25155 8.88036 33795 ft 405 kts 206°
2026-05-06 12:03 43.22545 8.86533 33585 ft 406 kts 206°
2026-05-06 12:03 43.19934 8.85038 33366 ft 406 kts 206°
2026-05-06 12:03 43.17320 8.83549 33152 ft 407 kts 205°
2026-05-06 12:03 43.14701 8.82060 32945 ft 408 kts 205°
2026-05-06 12:04 43.12082 8.80574 32735 ft 408 kts 205°
2026-05-06 12:04 43.09454 8.79084 32526 ft 408 kts 205°
2026-05-06 12:04 43.06822 8.77594 32303 ft 409 kts 205°
2026-05-06 12:04 43.04219 8.76120 32101 ft 410 kts 205°
2026-05-06 12:05 43.01580 8.74628 31894 ft 411 kts 205°
2026-05-06 12:05 42.98945 8.73139 31705 ft 411 kts 205°
2026-05-06 12:05 42.96301 8.71647 31521 ft 412 kts 205°
2026-05-06 12:05 42.93652 8.70153 31323 ft 411 kts 205°
2026-05-06 12:06 42.91010 8.68665 31122 ft 411 kts 205°
2026-05-06 12:06 42.88366 8.67177 30894 ft 411 kts 205°
2026-05-06 12:06 42.85721 8.65690 30699 ft 412 kts 205°
2026-05-06 12:06 42.83066 8.64199 30508 ft 412 kts 205°
2026-05-06 12:07 42.80411 8.62709 30315 ft 413 kts 205°
2026-05-06 12:07 42.77749 8.61216 30123 ft 414 kts 205°
2026-05-06 12:07 42.75085 8.59724 29929 ft 414 kts 205°
2026-05-06 12:07 42.72415 8.58229 29703 ft 415 kts 205°
2026-05-06 12:08 42.69778 8.56754 29466 ft 416 kts 205°
2026-05-06 12:08 42.67061 8.55235 29233 ft 418 kts 205°
2026-05-06 12:08 42.64400 8.53749 29017 ft 420 kts 205°
2026-05-06 12:08 42.61692 8.52238 28809 ft 421 kts 205°
2026-05-06 12:09 42.58979 8.50726 28588 ft 423 kts 205°
2026-05-06 12:09 42.56257 8.49210 28372 ft 424 kts 205°
2026-05-06 12:09 42.53526 8.47691 28161 ft 425 kts 205°
2026-05-06 12:09 42.50785 8.46169 27952 ft 426 kts 205°
2026-05-06 12:10 42.47960 8.44911 27738 ft 430 kts 197°
2026-05-06 12:10 42.45001 8.44163 27532 ft 434 kts 191°
2026-05-06 12:10 42.41967 8.43925 27319 ft 440 kts 184°
2026-05-06 12:10 42.38900 8.44055 27124 ft 441 kts 183°
2026-05-06 12:11 42.35827 8.44185 26920 ft 442 kts 183°
2026-05-06 12:11 42.32744 8.44293 26589 ft 445 kts 183°
2026-05-06 12:11 42.29640 8.44383 26346 ft 446 kts 183°
2026-05-06 12:11 42.26537 8.44475 26097 ft 447 kts 182°
2026-05-06 12:12 42.23435 8.44962 25843 ft 454 kts 173°
2026-05-06 12:12 42.20365 8.46063 25613 ft 459 kts 167°
2026-05-06 12:12 42.17418 8.47648 25363 ft 465 kts 159°
2026-05-06 12:12 42.14574 8.49739 25133 ft 466 kts 157°
2026-05-06 12:13 42.11753 8.51883 24893 ft 465 kts 156°
2026-05-06 12:13 42.08944 8.54012 24656 ft 462 kts 157°
2026-05-06 12:13 42.06137 8.56124 24396 ft 460 kts 158°
2026-05-06 12:13 42.03351 8.58200 24169 ft 457 kts 158°
2026-05-06 12:14 42.00573 8.60256 23943 ft 455 kts 158°
2026-05-06 12:14 41.97811 8.62293 23708 ft 453 kts 158°
2026-05-06 12:14 41.95055 8.64321 23478 ft 450 kts 158°
2026-05-06 12:14 41.92310 8.66338 23208 ft 449 kts 158°
2026-05-06 12:15 41.89571 8.68351 22938 ft 448 kts 158°
2026-05-06 12:15 41.86788 8.70166 22654 ft 441 kts 166°
2026-05-06 12:15 41.83877 8.71300 22381 ft 431 kts 175°
2026-05-06 12:15 41.80923 8.71861 22102 ft 427 kts 178°
2026-05-06 12:16 41.77972 8.72388 21845 ft 428 kts 178°
2026-05-06 12:16 41.75021 8.72946 21591 ft 429 kts 177°
2026-05-06 12:16 41.72104 8.73516 21334 ft 429 kts 176°
2026-05-06 12:16 41.69148 8.74102 21060 ft 428 kts 176°
2026-05-06 12:17 41.66214 8.74689 20806 ft 426 kts 176°
2026-05-06 12:17 41.63282 8.75275 20541 ft 424 kts 176°
2026-05-06 12:17 41.60370 8.75855 20297 ft 422 kts 176°
2026-05-06 12:17 41.57468 8.76431 20052 ft 421 kts 176°
2026-05-06 12:18 41.54571 8.77005 19806 ft 420 kts 176°
2026-05-06 12:18 41.51681 8.77576 19566 ft 419 kts 176°
2026-05-06 12:18 41.48788 8.78148 19324 ft 419 kts 176°
2026-05-06 12:18 41.45908 8.78716 19084 ft 418 kts 176°
2026-05-06 12:19 41.43036 8.79283 18672 ft 413 kts 176°
2026-05-06 12:19 41.40237 8.79838 18120 ft 399 kts 176°
2026-05-06 12:19 41.37576 8.80368 17615 ft 386 kts 176°
2026-05-06 12:19 41.34958 8.80890 17099 ft 375 kts 175°
2026-05-06 12:20 41.32488 8.81940 16511 ft 375 kts 157°
2026-05-06 12:20 41.30310 8.83800 16032 ft 367 kts 150°
2026-05-06 12:20 41.28253 8.85739 15528 ft 359 kts 150°
2026-05-06 12:20 41.26245 8.87653 15032 ft 350 kts 150°
2026-05-06 12:21 41.24282 8.89513 14552 ft 343 kts 150°
2026-05-06 12:21 41.22351 8.91327 14074 ft 337 kts 150°
2026-05-06 12:21 41.20447 8.93102 13574 ft 331 kts 150°
2026-05-06 12:21 41.18570 8.94843 13032 ft 326 kts 150°
2026-05-06 12:22 41.16721 8.96554 12537 ft 322 kts 150°
2026-05-06 12:22 41.14891 8.98242 12032 ft 320 kts 150°
2026-05-06 12:22 41.13070 8.99921 11527 ft 317 kts 150°
2026-05-06 12:22 41.11349 9.01510 11270 ft 306 kts 150°
2026-05-06 12:23 41.09620 9.03103 10992 ft 300 kts 150°
2026-05-06 12:23 41.07916 9.04671 10726 ft 296 kts 150°
2026-05-06 12:23 41.06232 9.06219 10457 ft 293 kts 150°
2026-05-06 12:23 41.04562 9.07752 10199 ft 290 kts 150°
2026-05-06 12:24 41.02931 9.09244 9936 ft 288 kts 150°
2026-05-06 12:24 41.01290 9.10746 9639 ft 286 kts 150°
2026-05-06 12:24 40.99665 9.12233 9367 ft 284 kts 149°
2026-05-06 12:24 40.98046 9.13713 9060 ft 282 kts 149°
2026-05-06 12:25 40.96441 9.15181 8789 ft 280 kts 149°
2026-05-06 12:25 40.94844 9.16642 8504 ft 278 kts 149°
2026-05-06 12:25 40.93256 9.18094 8235 ft 277 kts 149°
2026-05-06 12:25 40.91672 9.19543 7981 ft 277 kts 149°
2026-05-06 12:26 40.90083 9.20988 7686 ft 277 kts 149°
2026-05-06 12:26 40.88495 9.22432 7403 ft 275 kts 148°
2026-05-06 12:26 40.86982 9.23892 7229 ft 265 kts 140°
2026-05-06 12:26 40.85811 9.25729 7029 ft 257 kts 128°
2026-05-06 12:27 40.84952 9.27778 6837 ft 254 kts 117°
2026-05-06 12:27 40.84332 9.29963 6648 ft 255 kts 111°
2026-05-06 12:27 40.83836 9.32209 6467 ft 254 kts 109°
2026-05-06 12:27 40.83361 9.34455 6291 ft 253 kts 108°
2026-05-06 12:28 40.82996 9.36686 6093 ft 254 kts 104°
2026-05-06 12:28 40.82682 9.38990 5916 ft 253 kts 103°
2026-05-06 12:28 40.82380 9.41295 5773 ft 257 kts 103°
2026-05-06 12:28 40.82084 9.43622 5621 ft 258 kts 98°
2026-05-06 12:29 40.82011 9.46004 5474 ft 262 kts 90°
2026-05-06 12:29 40.82212 9.48391 5315 ft 261 kts 82°
2026-05-06 12:29 40.82765 9.50665 5149 ft 261 kts 64°
2026-05-06 12:29 40.83611 9.52763 5011 ft 258 kts 63°
2026-05-06 12:30 40.84444 9.54851 4856 ft 256 kts 64°
2026-05-06 12:30 40.85266 9.56912 4704 ft 248 kts 63°
2026-05-06 12:30 40.86043 9.58868 4531 ft 233 kts 63°
2026-05-06 12:30 40.86768 9.60707 4328 ft 218 kts 64°
2026-05-06 12:31 40.87458 9.62432 4188 ft 209 kts 64°
2026-05-06 12:31 40.88127 9.64096 4029 ft 201 kts 64°
2026-05-06 12:31 40.88771 9.65698 3873 ft 196 kts 63°
2026-05-06 12:31 40.89411 9.67277 3737 ft 196 kts 63°
2026-05-06 12:32 40.90054 9.68874 3586 ft 196 kts 63°
2026-05-06 12:32 40.90693 9.70454 3453 ft 195 kts 63°
2026-05-06 12:32 40.91117 9.71512 3358 ft 195 kts 64°
2026-05-06 12:32 40.91744 9.73087 3183 ft 192 kts 64°
2026-05-06 12:33 40.92366 9.74660 3085 ft 194 kts 63°
2026-05-06 12:33 40.92994 9.76263 3016 ft 201 kts 64°
2026-05-06 12:33 40.93636 9.77893 2983 ft 197 kts 63°
2026-05-06 12:33 40.94328 9.79398 2948 ft 188 kts 42°
2026-05-06 12:34 40.95384 9.80341 3003 ft 184 kts 29°
2026-05-06 12:34 40.96546 9.81103 2992 ft 188 kts 18°
2026-05-06 12:34 40.97812 9.81522 2982 ft 187 kts
2026-05-06 12:34 40.99099 9.81677 2993 ft 185 kts
2026-05-06 12:35 41.00383 9.81822 2978 ft 185 kts 357°
2026-05-06 12:35 41.01530 9.81268 3004 ft 173 kts 319°
2026-05-06 12:35 41.02219 9.80003 2898 ft 174 kts 288°
2026-05-06 12:35 41.02610 9.78471 2873 ft 172 kts 276°
2026-05-06 12:36 41.02642 9.76909 2933 ft 168 kts 262°
2026-05-06 12:36 41.02183 9.75505 3002 ft 170 kts 234°
2026-05-06 12:36 41.01515 9.74163 2992 ft 175 kts 237°
2026-05-06 12:36 41.00854 9.72826 2975 ft 172 kts 236°
2026-05-06 12:37 41.00193 9.71537 2974 ft 167 kts 236°
2026-05-06 12:37 40.99538 9.70279 2967 ft 166 kts 236°
2026-05-06 12:37 40.98876 9.69012 2845 ft 172 kts 235°
2026-05-06 12:37 40.98190 9.67700 2610 ft 172 kts 235°
2026-05-06 12:38 40.97525 9.66428 2390 ft 165 kts 235°
2026-05-06 12:38 40.96869 9.65173 2158 ft 167 kts 235°
2026-05-06 12:38 40.96194 9.63882 1950 ft 173 kts 235°
2026-05-06 12:38 40.95504 9.62561 1713 ft 175 kts 235°
2026-05-06 12:39 40.94814 9.61240 1470 ft 173 kts 234°
2026-05-06 12:39 40.94134 9.59938 1231 ft 170 kts 233°
2026-05-06 12:39 40.93473 9.58672 1000 ft 161 kts 234°
2026-05-06 12:39 40.92873 9.57524 802 ft 148 kts 234°
2026-05-06 12:40 40.92282 9.56395 639 ft 151 kts 233°
2026-05-06 12:40 40.91683 9.55237 425 ft 152 kts 233°
2026-05-06 12:40 40.91083 9.54074 247 ft 154 kts 232°
2026-05-06 12:40 40.90465 9.52896 42 ft 156 kts 233°
2026-05-06 12:41 40.89905 9.51839 32 ft 123 kts 235°
2026-05-06 12:41 40.89526 9.51108 32 ft 73 kts 235°
2026-05-06 12:41 40.89339 9.50755 32 ft 30 kts 235°
2026-05-06 12:41 40.89269 9.50601 34 ft 14 kts 263°
2026-05-06 12:42 40.89286 9.50480 33 ft 13 kts 292°
2026-05-06 12:42 40.89360 9.50443 33 ft 12 kts 11°
2026-05-06 12:42 40.89416 9.50520 31 ft 12 kts 52°
2026-05-06 12:42 40.89467 9.50612 33 ft 14 kts 55°
2026-05-06 12:43 40.89532 9.50737 33 ft 19 kts 55°
2026-05-06 12:43 40.89614 9.50890 33 ft 21 kts 55°
2026-05-06 12:43 40.89695 9.51042 33 ft 20 kts 55°
2026-05-06 12:43 40.89771 9.51192 33 ft 19 kts 55°
2026-05-06 12:44 40.89847 9.51335 33 ft 19 kts 55°
2026-05-06 12:44 40.89919 9.51473 33 ft 18 kts 55°
2026-05-06 12:44 40.89987 9.51526 33 ft 10 kts 351°
2026-05-06 12:44 40.90050 9.51483 33 ft 10 kts 340°
2026-05-06 12:45 40.90102 9.51528 33 ft 10 kts 57°
2026-05-06 12:45 40.90124 9.51572 32 ft 2 kts 56°
2026-05-06 12:45 40.90126 9.51576 32 ft 0 kts 53°
2026-05-06 12:46 40.90131 9.51577 33 ft 2 kts 17°
2026-05-06 12:46 40.90143 9.51564 33 ft 3 kts 321°
2026-05-06 12:46 40.90160 9.51546 33 ft 3 kts 323°
2026-05-06 12:46 40.90173 9.51534 33 ft 0 kts 326°
2026-05-06 12:47 40.90177 9.51530 33 ft 0 kts 325°